Waarnemingen

Advertentie
Mijn weer
St-Hubert, België (6476): temperatuur & dauwpunt: 12.02.2018 21:00:00 - 18.02.2018 21:00:00 (CET)St-Hubert, België (6476): windsnelheid & windstoten: 12.02.2018 21:00:00 - 18.02.2018 21:00:00 (CET)St-Hubert, België (6476): windrichting: 12.02.2018 21:00:00 - 18.02.2018 21:00:00 (CET)St-Hubert, België (6476): luchtdruk: 12.02.2018 21:00:00 - 18.02.2018 21:00:00 (CET)St-Hubert, België (6476): zicht: 12.02.2018 21:00:00 - 18.02.2018 21:00:00 (CET)
Datum & Tijd tt [°C] td [°C] ff [km/u] ff [kn] fx [km/u] fx [kn] dd ppp [hPa] vv [km]
18.02.2018 21:00:00 -2,0 -4,1 11 6 18 10 ZO 1025,6 9
18.02.2018 20:00:00 -1,7 -4,9 7 4 18 10 ZO 1025,9 14
18.02.2018 19:00:00 -1,0 -4,4 7 4 - - ZO 1025,9 15
18.02.2018 18:00:00 0,1 -4,1 7 4 18 10 ZO 1025,7 15
18.02.2018 17:00:00 1,2 -4,7 11 6 25 14 ZO 1025,7 17
18.02.2018 16:00:00 1,7 -5,2 7 4 - - ZO 1025,8 27
18.02.2018 15:00:00 1,6 -3,3 11 6 18 10 ZO 1026,1 15
18.02.2018 14:00:00 1,1 -2,9 11 6 18 10 ZO 1026,7 11
18.02.2018 13:00:00 0,6 -2,5 7 4 - - ZZW 1027,4 10
18.02.2018 12:00:00 -0,9 -2,5 7 4 18 10 Z 1028,2 -
18.02.2018 11:00:00 -1,3 -2,7 7 4 18 10 ZZO 1027,9 5
18.02.2018 10:00:00 -1,9 -3,2 11 6 - - ZO 1027,6 4,6
18.02.2018 09:00:00 -2,3 -3,6 7 4 14 8 ZZO 1027,6 5
18.02.2018 08:00:00 -2,8 -4,5 7 4 14 8 ZZO 1028,0 10
18.02.2018 07:00:00 -1,8 -4,9 4 2 - - Z 1027,8 16
18.02.2018 06:00:00 -1,7 -4,7 7 4 11 6 ZZO 1027,6 17
18.02.2018 05:00:00 -1,7 -4,3 7 4 14 8 ZZO 1027,3 14
18.02.2018 04:00:00 -1,8 -4,3 4 2 - - ZZO 1027,5 13
18.02.2018 03:00:00 -0,8 -2,9 4 2 11 6 Z 1027,3 -
18.02.2018 02:00:00 -1,2 -2,8 7 4 14 8 ZZO 1027,4 -
18.02.2018 01:00:00 -2,5 -4,2 7 4 - - ZO 1027,4 10
18.02.2018 00:00:00 -1,5 -3,6 4 2 11 6 ZZO 1027,2 16
17.02.2018 23:00:00 - - 4 2 7 4 ZZO - 19
17.02.2018 22:00:00 -2,3 -4,3 4 2 - - Z 1026,4 17
17.02.2018 21:00:00 -0,1 -3,6 4 2 7 4 ZZO 1025,4 23
17.02.2018 20:00:00 -0,4 -3,6 4 2 4 2 Z 1025,1 18
17.02.2018 19:00:00 -0,7 -3,9 4 2 - - ZZO 1024,8 23
17.02.2018 18:00:00 0,8 -3,5 4 2 7 4 OZO 1023,5 35
17.02.2018 17:00:00 3,2 -3,1 4 2 14 8 NNO 1022,2 30
17.02.2018 16:00:00 3,5 -2,9 7 4 - - ONO 1021,6 27
17.02.2018 15:00:00 2,5 -2,6 7 4 14 8 O 1021,5 22
17.02.2018 14:00:00 2,8 -2,3 4 2 14 8 NNO 1021,7 25
17.02.2018 13:00:00 2,1 -2,5 7 4 - - O 1021,6 23
17.02.2018 12:00:00 1,4 -3,0 7 4 18 10 O 1021,5 30
17.02.2018 11:00:00 0,1 -2,6 11 6 22 12 ONO 1021,3 19
17.02.2018 10:00:00 -0,6 -3,0 14 8 - - ONO 1021,2 18
17.02.2018 09:00:00 -0,5 -3,1 18 10 32 18 ONO 1020,8 21
17.02.2018 08:00:00 -0,4 -3,0 18 10 25 14 O 1020,7 23
17.02.2018 07:00:00 -1,4 -3,2 18 10 - - ONO 1021,2 11
17.02.2018 06:00:00 -0,4 -2,6 18 10 29 16 O 1021,9 18
17.02.2018 05:00:00 -0,7 -3,1 18 10 32 18 O 1022,6 21
17.02.2018 04:00:00 0,0 -3,4 18 10 - - O 1023,1 40
17.02.2018 03:00:00 -0,1 -3,2 22 12 32 18 OZO 1024,0 35
17.02.2018 02:00:00 0,0 -3,1 22 12 29 16 O 1024,3 35
17.02.2018 01:00:00 -0,1 -4,0 18 10 - - O 1025,4 40
17.02.2018 00:00:00 -0,3 -3,0 14 8 22 12 O 1026,4 30
16.02.2018 23:00:00 -0,6 -3,4 14 8 22 12 OZO 1026,8 30
16.02.2018 22:00:00 -0,6 -2,2 11 6 - - O 1027,4 30
16.02.2018 21:00:00 -0,3 -1,2 7 4 11 6 OZO 1027,5 30
16.02.2018 20:00:00 -0,6 -2,8 4 2 11 6 OZO 1027,8 30
16.02.2018 19:00:00 0,1 -2,5 7 4 - - OZO 1027,6 35
16.02.2018 18:00:00 0,8 -2,2 4 2 7 4 ZO 1027,7 30
16.02.2018 17:00:00 4,0 -3,2 0 0 11 6 N 1027,1 35
16.02.2018 16:00:00 4,3 -2,1 4 2 - - WZW 1027,3 35
16.02.2018 15:00:00 3,7 -3,0 4 2 11 6 - 1027,4 30
16.02.2018 14:00:00 2,9 -1,4 7 4 18 10 WZW 1027,9 24
16.02.2018 13:00:00 2,7 -1,8 7 4 - - WZW 1028,1 26
16.02.2018 12:00:00 2,4 -1,0 7 4 18 10 WZW 1028,3 17
16.02.2018 11:00:00 1,8 -1,4 7 4 14 8 WNW 1028,0 16
16.02.2018 10:00:00 0,3 -1,4 7 4 - - W 1027,9 13
16.02.2018 09:00:00 -0,7 -1,8 4 2 7 4 WZW 1027,4 -
16.02.2018 08:00:00 -0,9 -1,9 4 2 7 4 W 1026,6 8
16.02.2018 07:00:00 -0,5 -1,0 4 2 - - W 1025,9 0,1
16.02.2018 06:00:00 0,4 -0,4 7 4 22 12 WNW 1025,1 2,7
16.02.2018 05:00:00 0,8 -0,2 14 8 29 16 WNW 1024,2 5
16.02.2018 04:00:00 1,4 0,4 7 4 - - WNW 1023,6 -
16.02.2018 03:00:00 1,4 0,5 7 4 14 8 W 1023,1 10
16.02.2018 02:00:00 1,3 0,6 4 2 11 6 W 1022,5 -
16.02.2018 01:00:00 1,9 0,9 7 4 - - WNW 1021,6 11
16.02.2018 00:00:00 2,3 0,9 14 8 22 12 NW 1020,8 15
15.02.2018 23:00:00 2,8 1,3 11 6 18 10 W 1020,1 16
15.02.2018 22:00:00 3,0 2,1 11 6 - - W 1019,1 9
15.02.2018 21:00:00 3,1 2,5 7 4 14 8 W 1018,5 1,3
15.02.2018 20:00:00 3,1 2,2 7 4 11 6 W 1018,0 10
15.02.2018 19:00:00 3,1 2,4 4 2 - - ZW 1017,4 3,6
15.02.2018 18:00:00 3,1 2,7 4 2 18 10 WZW 1016,6 0,2
15.02.2018 17:00:00 3,0 2,8 11 6 18 10 W 1016,1 0,1
15.02.2018 16:00:00 2,9 2,4 7 4 - - ZW 1015,8 -
15.02.2018 15:00:00 3,0 2,6 7 4 18 10 ZW 1014,8 0,1
15.02.2018 14:00:00 2,6 2,1 7 4 18 10 ZW 1014,4 0,2
15.02.2018 13:00:00 2,0 1,5 7 4 - - ZW 1014,2 0,1
15.02.2018 12:00:00 1,3 0,7 7 4 22 12 ZZW 1013,9 0,1
15.02.2018 11:00:00 0,8 0,2 11 6 25 14 ZZW 1013,5 0,2
15.02.2018 10:00:00 0,3 -0,4 7 4 - - ZZW 1013,3 0,5
15.02.2018 09:00:00 - - - - - - - - -
15.02.2018 08:00:00 -0,4 -1,4 11 6 29 16 Z 1011,9 1,4
15.02.2018 07:00:00 -0,5 -1,7 11 6 - - Z 1011,9 2,9
15.02.2018 06:00:00 -0,6 -1,7 14 8 40 21 - 1011,7 2,2
15.02.2018 05:00:00 -0,8 -2,1 14 8 43 23 ZZO 1011,2 5
15.02.2018 04:00:00 -1,4 -2,9 18 10 - - - 1012,0 3,2
15.02.2018 03:00:00 -1,8 -3,1 22 12 47 25 ZZO 1012,5 1,3
15.02.2018 02:00:00 -1,0 -4,2 22 12 43 23 ZZO 1013,2 2,5
15.02.2018 01:00:00 -0,7 -4,3 18 10 - - ZZO 1013,9 29
15.02.2018 00:00:00 -0,5 -4,1 18 10 43 23 ZZO 1014,0 30
14.02.2018 23:00:00 -0,8 -4,2 22 12 43 23 ZZO 1014,2 27
14.02.2018 22:00:00 -0,8 -5,2 14 8 - - ZZO 1015,2 35
14.02.2018 21:00:00 -0,7 -5,0 14 8 40 21 ZZO 1015,4 30
14.02.2018 20:00:00 -0,7 -4,7 11 6 29 16 ZZO 1015,8 35
14.02.2018 19:00:00 -0,6 -4,7 14 8 - - ZZO 1015,5 35
14.02.2018 18:00:00 -0,4 -5,0 14 8 29 16 ZZO 1016,0 40
14.02.2018 17:00:00 - - - - - - - - -
14.02.2018 16:00:00 0,4 -5,2 14 8 - - ZZO 1015,8 28
14.02.2018 15:00:00 0,2 -4,3 11 6 40 21 Z 1015,9 30
14.02.2018 14:00:00 -0,8 -4,7 18 10 36 19 ZO 1016,0 22
14.02.2018 13:00:00 -1,0 -4,7 11 6 - - Z 1016,5 23
14.02.2018 12:00:00 -1,6 -5,8 14 8 32 18 ZZO 1016,6 29
14.02.2018 11:00:00 -2,3 -6,5 11 6 32 18 ZZO 1016,5 28
14.02.2018 10:00:00 -4,4 -8,1 14 8 - - ZO 1016,9 26
14.02.2018 09:00:00 -5,4 -9,1 18 10 29 16 ZO 1016,3 35
14.02.2018 08:00:00 -5,8 -9,5 22 12 32 18 ZO 1016,1 40
14.02.2018 07:00:00 -5,7 -9,4 18 10 - - ZO 1015,7 40
14.02.2018 06:00:00 -5,1 -9,4 22 12 29 16 OZO 1015,0 45
14.02.2018 05:00:00 -5,0 -9,3 18 10 32 18 ZO 1014,4 45
14.02.2018 04:00:00 -4,7 -9,0 18 10 - - ZO 1013,8 45
14.02.2018 03:00:00 -4,2 -8,6 14 8 32 18 ZO 1013,4 45
14.02.2018 02:00:00 -4,1 -8,6 18 10 29 16 ZO 1013,2 45
14.02.2018 01:00:00 -3,8 -8,6 18 10 - - ZO 1012,8 45
14.02.2018 00:00:00 -3,5 -8,6 18 10 29 16 ZO 1012,3 45
13.02.2018 23:00:00 -3,5 -8,8 14 8 25 14 ZO 1012,2 45
13.02.2018 22:00:00 -3,1 -8,7 14 8 - - ZO 1011,7 45
13.02.2018 21:00:00 -3,0 -8,4 18 10 32 18 ZO 1011,4 45
13.02.2018 20:00:00 -2,7 -7,8 18 10 29 16 ZO 1010,8 45
13.02.2018 19:00:00 -2,3 -7,1 14 8 - - ZO 1010,5 45
13.02.2018 18:00:00 -1,8 -7,5 14 8 29 16 ZO 1010,3 45
13.02.2018 17:00:00 -0,6 -7,6 11 6 32 18 ZZO 1010,2 40
13.02.2018 16:00:00 -0,3 -7,1 11 6 - - ZZO 1010,2 35
13.02.2018 15:00:00 -0,3 -7,5 11 6 36 19 - 1010,9 35
13.02.2018 14:00:00 0,1 -6,7 11 6 29 16 ZZO 1011,6 35
13.02.2018 13:00:00 -0,4 -6,0 14 8 - - Z 1012,4 29
13.02.2018 12:00:00 -1,4 -5,6 11 6 32 18 - 1013,2 27
13.02.2018 11:00:00 -2,4 -5,7 11 6 25 14 Z 1013,9 35
13.02.2018 10:00:00 -3,4 -6,0 11 6 - - Z 1014,7 35
13.02.2018 09:00:00 -3,9 -6,1 11 6 25 14 Z 1015,4 30
13.02.2018 08:00:00 -4,9 -6,5 11 6 25 14 ZZO 1015,9 17
13.02.2018 07:00:00 -4,9 -6,3 11 6 - - Z 1016,1 -
13.02.2018 06:00:00 -4,6 -5,8 11 6 22 12 ZZO 1016,8 2,9
13.02.2018 05:00:00 -4,8 -6,1 4 2 14 8 - 1017,4 9
13.02.2018 04:00:00 -4,4 -5,9 4 2 - - - 1017,9 23
13.02.2018 03:00:00 -4,4 -5,9 4 2 11 6 ZZW 1018,4 30
13.02.2018 02:00:00 -4,4 -6,0 4 2 14 8 ZZW 1018,7 29
13.02.2018 01:00:00 -4,0 -6,1 7 4 - - ZW 1019,1 27
13.02.2018 00:00:00 -3,8 -6,3 7 4 14 8 ZW 1019,0 35
12.02.2018 23:00:00 -3,7 -5,9 7 4 14 8 ZZW 1019,3 40
12.02.2018 22:00:00 -4,8 -7,2 7 4 - - ZW 1019,7 35
12.02.2018 21:00:00 -4,2 -7,1 4 2 11 6 ZW 1019,6 45

tt = temperatuur
td = dauwpunt
ff = windsnelheid
fx = windstoten
dd = windrichting
ppp = luchtdruk
vv = zicht

Weerstations in de omgeving